Home > Weather > Smara > Past weeks

Past Weather in Smara, Western Sahara — Yesterday and Last 2 Weeks

Now
66 °F

Clear.


Feels Like: 66 °F
Forecast: 57 / 87 °F
Wind: 15 mph from North

Location: Laayoune/Hassan Isl

Current Time: May 30, 2016 at 12:01:04 AM

Latest Report: May 29, 2016 at 11:00 PM


Visibility: 5 mi

Pressure: 30.12 "Hg

Humidity: 68%

Dew Point: 55 °F

Location of SmaraLocation

Past Weather in Smara — Graph

°F

Smara Temperature Yesterday

Maximum temperature yesterday: 79 °F (at 2:00 PM)
Minimum temperature yesterday: 63 °F (at 3:00 AM)
Average temperature yesterday: 69 °F

High & Low Weather Summary for the Past Weeks

 TemperatureHumidityPressure
High84 °F (May 15, 9:00 PM)100% (May 15, 4:00 AM)30.24 "Hg (May 15, 4:00 AM)
Low-69 °F (May 15, 4:00 AM)34% (May 28, 4:00 PM)29.92 "Hg (May 25, 5:00 PM)
Average67 °F68%30.05 "Hg
* Reported May 14 10:00 PM — May 29 10:00 PM, Smara, Weather by CustomWeather, © 2016

Note: Actual official high and low records may vary slightly from our data, if they occured in-between our weather recording intervals... More about our weather records

Advertising

Smara Weather History for the Previous 24 Hours

Scroll right to see more
 ConditionsComfort  
Time TempWeatherWind HumidityBarometerVisibility
10:00 PM
Sun, May 29
66 °FClear.20 mph64%30.12 "HgN/A
9:00 PM68 °FPassing clouds.23 mph56%30.09 "HgN/A
7:00 PM73 °FScattered clouds.17 mph50%30.09 "HgN/A
6:00 PM75 °FScattered clouds.21 mph44%30.09 "HgN/A
5:00 PM77 °FScattered clouds.21 mph44%30.09 "HgN/A
4:00 PM79 °FScattered clouds.23 mph42%30.09 "HgN/A
3:00 PM79 °FSunny.23 mph39%30.12 "Hg10 mi
2:00 PM79 °FSunny.23 mph39%30.12 "Hg10 mi
1:00 PM77 °FSunny.17 mph42%30.15 "Hg10 mi
12:00 PM75 °FSunny.22 mph41%30.15 "Hg10 mi
11:00 AM72 °FScattered clouds.20 mph47%30.18 "HgN/A
10:00 AM70 °FScattered clouds.22 mph57%30.18 "HgN/A
9:00 AM66 °FScattered clouds.17 mph73%30.18 "HgN/A
8:00 AM63 °FPassing clouds.10 mph94%30.18 "HgN/A
7:00 AM63 °FPassing clouds.7 mph88%30.18 "HgN/A
6:00 AM63 °FPassing clouds.7 mph88%30.18 "HgN/A
5:00 AM63 °FPassing clouds.6 mph94%30.15 "HgN/A
4:00 AM63 °FClear.8 mph88%30.15 "Hg10 mi
3:00 AM63 °FClear.12 mph88%30.15 "Hg10 mi
2:00 AM64 °FClear.10 mph88%30.18 "Hg10 mi
1:00 AM64 °FClear.8 mph83%30.21 "Hg10 mi
12:00 AM66 °FClear.12 mph73%30.24 "Hg10 mi
Weather by CustomWeather, © 2016

See weather overviewHow to use our weather pages